Weather History for Amarillo, TX

Change the Weather History Date:

Tuesday, November 13, 2012

  Actual Average Record
Temperature  
Mean Temperature 43 °F 47 °F  
Max Temperature 58 °F 61 °F 81 °F (1973)
Min Temperature 28 °F 34 °F 6 °F (1916)
Degree Days  
Heating Degree Days 22 18  
Month to date heating degree days 118 195  
Since 1 July heating degree days 389 475  
Cooling Degree Days 0 0  
Month to date cooling degree days 4 0  
Year to date cooling degree days 2011 1398  
Moisture  
Dew Point 16 °F    
Average Humidity 40    
Maximum Humidity 58    
Minimum Humidity 21    
Precipitation  
Precipitation 0.00 in 0.02 in 1.15 in (1931)
Month to date precipitation 0.01 0.42  
Year to date precipitation 11.79 19.27  
Snow  
Snow 0.00 in 0.10 in 4.40 in (2004)
Month to date snowfall 0.0 0.8  
Since 1 July snowfall T 1.0  
Since 1 September snowfall T 1.0  
Snow Depth 0.00 in    
Sea Level Pressure  
Sea Level Pressure 30.29 in    
Wind  
Wind Speed 15 mph (South)    
Max Wind Speed 29 mph    
Max Gust Speed 36 mph    
Visibility 10 miles    
Events      
T = Trace of Precipitation, MM = Missing Value Source: NWS Daily Summary

Daily Weather History Graph

Daily Weather History Graph

Search for Another Location

Airport:

Trip Planner

Search our weather history database for the weather conditions in past years. The results will help you decide how hot, cold, wet, or windy it might be!

Date:

Astronomy

Nov. 13, 2012 Rise Set
Actual Time 7:20 AM CST 5:41 PM CST
Civil Twilight 6:53 AM CST 6:08 PM CST
Nautical Twilight 6:22 AM CST 6:39 PM CST
Astronomical Twilight 5:52 AM CST 7:09 PM CST
Moon 7:00 AM CST (11/13) 5:37 PM CST (11/13)
Length of Visible Light 11h 15m
Length of Day
10h 21m
Waning Crescent, 0% of the Moon is Illuminated
Nov 13
Waning Crescent
Nov 13
New
Nov 20
First Quarter
Nov 28
Full
Dec 6
Last Quarter

Hourly Weather History & Observations

Time (CST) Temp. Windchill Dew Point Humidity Pressure Visibility Wind Dir Wind Speed Gust Speed Precip Events Conditions
12:53 AM 32.0 °F 23.6 °F 12.0 °F 44% 30.41 in 10.0 mi South 10.4 mph - N/A   Clear
1:53 AM 28.9 °F 19.8 °F 14.0 °F 54% 30.39 in 10.0 mi South 10.4 mph - N/A   Clear
2:53 AM 30.0 °F 20.5 °F 15.1 °F 54% 30.36 in 10.0 mi South 11.5 mph - N/A   Clear
3:53 AM 30.9 °F 20.7 °F 16.0 °F 54% 30.36 in 10.0 mi South 13.8 mph - N/A   Clear
4:53 AM 30.9 °F 20.2 °F 15.1 °F 52% 30.34 in 10.0 mi South 15.0 mph - N/A   Clear
5:53 AM 28.0 °F 17.5 °F 14.0 °F 56% 30.37 in 10.0 mi South 12.7 mph - N/A   Clear
6:53 AM 28.9 °F 18.6 °F 15.1 °F 56% 30.38 in 10.0 mi South 12.7 mph - N/A   Clear
7:53 AM 30.9 °F 22.2 °F 16.0 °F 54% 30.38 in 10.0 mi South 10.4 mph - N/A   Clear
8:53 AM 36.0 °F 27.1 °F 17.1 °F 46% 30.38 in 10.0 mi South 13.8 mph - N/A   Clear
9:53 AM 43.0 °F 35.4 °F 17.1 °F 35% 30.35 in 10.0 mi South 16.1 mph 25.3 mph N/A   Clear
10:53 AM 48.0 °F - 17.1 °F 29% 30.34 in 10.0 mi SSW 23.0 mph 28.8 mph N/A   Clear
11:53 AM 53.1 °F - 18.0 °F 25% 30.29 in 10.0 mi SSW 20.7 mph 28.8 mph N/A   Clear
12:53 PM 54.0 °F - 18.0 °F 24% 30.24 in 10.0 mi SSW 23.0 mph 29.9 mph N/A   Clear
1:53 PM 55.9 °F - 17.1 °F 22% 30.19 in 10.0 mi South 24.2 mph 35.7 mph N/A   Clear
2:53 PM 57.0 °F - 18.0 °F 22% 30.17 in 10.0 mi South 23.0 mph 29.9 mph N/A   Clear
3:53 PM 57.0 °F - 17.1 °F 21% 30.17 in 10.0 mi SSW 20.7 mph 31.1 mph N/A   Clear
4:53 PM 55.0 °F - 17.1 °F 23% 30.19 in 10.0 mi SSW 18.4 mph - N/A   Clear
5:53 PM 50.0 °F - 17.1 °F 27% 30.23 in 10.0 mi South 10.4 mph - N/A   Clear
6:53 PM 46.9 °F - 16.0 °F 29% 30.25 in 10.0 mi South 11.5 mph - N/A   Clear
7:53 PM 46.0 °F 40.2 °F 16.0 °F 30% 30.25 in 10.0 mi South 12.7 mph - N/A   Clear
8:53 PM 41.0 °F 34.7 °F 14.0 °F 33% 30.27 in 10.0 mi South 10.4 mph - N/A   Clear
9:53 PM 37.9 °F 32.1 °F 12.9 °F 36% 30.28 in 10.0 mi South 8.1 mph - N/A   Clear
10:53 PM 37.9 °F 29.6 °F 14.0 °F 38% 30.28 in 10.0 mi SSW 13.8 mph - N/A   Clear
11:53 PM 34.0 °F 26.0 °F 14.0 °F 44% 30.28 in 10.0 mi SSW 10.4 mph - N/A   Clear